COSMOS 1733

Satellite information

Favourite Embed

Satellite Type and Status

PAYLOADIN ORBIT

Key statistics

Satellite COSMOS 1733 at a glance.

Uptime

14323

Days in orbit

Revolutions

≈ 15.6

Per day

Orbit

LEO

Low Earth Orbit

Inclination

82.5

Latest

Satellite identification and parameters

Extended collection of information and parameters for COSMOS 1733.

Object identification

Identified? True

Debris? False

Object name: COSMOS 1733

International designator: 1986-018A

Object number (NORAD): 16611

Object ID (CCSDS): 16611

Country: COMMONWEALTH OF INDEPENDENT STATES (CIS)

Current information (Y/N): Y

RCS size: LARGE

Orbital parameters

Period: 92.319 minutes

Inclination: 82.4735 deg

SMA: 6766.344 km

Apoapsis: 390.986 km

Periapsis: 385.433 km

RAAN: 38.0182 deg

Eccentricy: 0.0004103

Argument of periapsis: 17.8205 deg

Mean anomaly: 342.3194 deg

Mean motion: 15.59809669 rev/day

Mean motion (dot): 0.00040576 rev/day2

B* drag term: 0.00050394 1/REarth

Two-line elements (TLE)

Creation date: May 8, 2025, 3:01 a.m.

Reference frame: TEME

Reference center: EARTH

Epoch: May 7, 2025, 6:39 p.m. UTC

TLE line 0: 0 COSMOS 1733

TLE line 1: 1 16611U 86018A 25127.77728621 .00040576 00000-0 50394-3 0 9991

TLE line 2: 2 16611 82.4735 38.0182 0004103 17.8205 342.3194 15.59809669147162

Live tracking on map

Real-time ground track for satellite COSMOS 1733.

In-orbit conjunctions

There are no conjunctions computed for COSMOS 1733, at the moment. Check back to stay up to date, as we update our databases every day.

Go to all conjunctions

Associated space launch

Tselina-D satellites provided detailed observation of radio sources detected by the smaller Tselina-O satellites as part of the Tselina ELINT system.

COSMOS 1733 was lifted into orbit during the mission ‘Tsiklon-3 | Tselina-D 54’, on board a Tsiklon-3 space rocket.

The launch took place on Feb. 19, 1986, 11:04 p.m. from 32/1.

For more information about the launch, click the button.

Launch to space Tsiklon-3 | Tselina-D 54
Tsiklon-3 | Tselina-D 54

Agency: N/A

Status: Launch Successful

Launch date: Feb. 19, 1986, 11:04 p.m. UTC

Rocket: Tsiklon-3

Launch pad: 32/1

Location: Plesetsk Cosmodrome, Russian Federation

...

Latest news about this satellite

There are no fresh news available about this satellite. Check back as we update our databases every day.


Newsletter sign-up

Weekly statistics, charts and insights to help you stay on top of the space industry.